Year,Month,Day,Hour,Minute,Value (Times are PST for temperature in C)
2013,09,24,00,00,1.10
2013,09,24,00,04,1.10
2013,09,24,00,05,1.10
2013,09,24,00,06,1.10
2013,09,24,00,07,1.10
2013,09,24,00,08,1.10
2013,09,24,00,09,1.10
2013,09,24,00,10,1.10
2013,09,24,00,11,1.10
2013,09,24,00,12,1.10
2013,09,24,00,13,1.10
2013,09,24,00,14,1.10
2013,09,24,00,15,1.10
2013,09,24,00,19,1.20
2013,09,24,00,20,1.20
2013,09,24,00,21,1.20
2013,09,24,00,22,1.20
2013,09,24,00,23,1.20
2013,09,24,00,24,1.20
2013,09,24,00,25,1.20
2013,09,24,00,26,1.20
2013,09,24,00,27,1.20
2013,09,24,00,28,1.20
2013,09,24,00,29,1.20
2013,09,24,00,30,1.20
2013,09,24,00,34,1.00
2013,09,24,00,35,1.00
2013,09,24,00,36,1.00
2013,09,24,00,37,1.00
2013,09,24,00,38,1.00
2013,09,24,00,39,1.00
2013,09,24,00,40,1.00
2013,09,24,00,41,1.00
2013,09,24,00,42,1.00
2013,09,24,00,43,1.00
2013,09,24,00,44,1.00
2013,09,24,00,45,1.00
2013,09,24,00,49,1.00
2013,09,24,00,50,1.00
2013,09,24,00,51,1.00
2013,09,24,00,52,1.00
2013,09,24,00,53,1.00
2013,09,24,00,54,1.00
2013,09,24,00,55,1.00
2013,09,24,00,56,1.00
2013,09,24,00,57,1.00
2013,09,24,00,58,1.00
2013,09,24,00,59,1.00
2013,09,24,01,00,1.00
2013,09,24,01,04,0.90
2013,09,24,01,05,0.90
2013,09,24,01,06,0.90
2013,09,24,01,07,0.90
2013,09,24,01,08,0.90
2013,09,24,01,09,0.90
2013,09,24,01,10,0.90
2013,09,24,01,11,0.90
2013,09,24,01,12,0.90
2013,09,24,01,13,0.90
2013,09,24,01,14,0.90
2013,09,24,01,15,0.90
2013,09,24,01,19,0.90
2013,09,24,01,20,0.90
2013,09,24,01,21,0.90
2013,09,24,01,22,0.90
2013,09,24,01,23,0.90
2013,09,24,01,24,0.90
2013,09,24,01,25,0.90
2013,09,24,01,26,0.90
2013,09,24,01,27,0.90
2013,09,24,01,28,0.90
2013,09,24,01,29,0.90
2013,09,24,01,30,0.90
2013,09,24,01,34,0.90
2013,09,24,01,35,0.90
2013,09,24,01,36,0.90
2013,09,24,01,37,0.90
2013,09,24,01,38,0.90
2013,09,24,01,39,0.90
2013,09,24,01,40,0.90
2013,09,24,01,41,0.90
2013,09,24,01,42,0.90
2013,09,24,01,43,0.90
2013,09,24,01,44,0.90
2013,09,24,01,45,0.90
2013,09,24,01,49,0.80
2013,09,24,01,50,0.80
2013,09,24,01,51,0.80
2013,09,24,01,52,0.80
2013,09,24,01,53,0.80
2013,09,24,01,54,0.80
2013,09,24,01,55,0.80
2013,09,24,01,56,0.80
2013,09,24,01,57,0.80
2013,09,24,01,58,0.80
2013,09,24,01,59,0.80
2013,09,24,02,00,0.80
2013,09,24,02,04,0.70
2013,09,24,02,05,0.70
2013,09,24,02,06,0.70
2013,09,24,02,07,0.70
2013,09,24,02,08,0.70
2013,09,24,02,09,0.70
2013,09,24,02,10,0.70
2013,09,24,02,11,0.70
2013,09,24,02,12,0.70
2013,09,24,02,13,0.70
2013,09,24,02,14,0.70
2013,09,24,02,15,0.70
2013,09,24,02,19,0.70
2013,09,24,02,20,0.70
2013,09,24,02,21,0.70
2013,09,24,02,22,0.70
2013,09,24,02,23,0.70
2013,09,24,02,24,0.70
2013,09,24,02,25,0.70
2013,09,24,02,26,0.70
2013,09,24,02,27,0.70
2013,09,24,02,28,0.70
2013,09,24,02,29,0.70
2013,09,24,02,30,0.70
2013,09,24,02,34,0.80
2013,09,24,02,35,0.80
2013,09,24,02,36,0.80
2013,09,24,02,37,0.80
2013,09,24,02,38,0.80
2013,09,24,02,39,0.80
2013,09,24,02,40,0.80
2013,09,24,02,41,0.80
2013,09,24,02,42,0.80
2013,09,24,02,43,0.80
2013,09,24,02,44,0.80
2013,09,24,02,45,0.80
2013,09,24,02,49,0.90
2013,09,24,02,50,0.90
2013,09,24,02,51,0.90
2013,09,24,02,52,0.90
2013,09,24,02,53,0.90
2013,09,24,02,54,0.90
2013,09,24,02,55,0.90
2013,09,24,02,56,0.90
2013,09,24,02,57,0.90
2013,09,24,02,58,0.90
2013,09,24,02,59,0.90
2013,09,24,03,00,0.90
2013,09,24,03,04,0.90
2013,09,24,03,05,0.90
2013,09,24,03,06,0.90
2013,09,24,03,07,0.90
2013,09,24,03,08,0.90
2013,09,24,03,09,0.90
2013,09,24,03,10,0.90
2013,09,24,03,11,0.90
2013,09,24,03,12,0.90
2013,09,24,03,13,0.90
2013,09,24,03,14,0.90
2013,09,24,03,15,0.90
2013,09,24,03,19,0.80
2013,09,24,03,20,0.80
2013,09,24,03,21,0.80
2013,09,24,03,22,0.80
2013,09,24,03,23,0.80
2013,09,24,03,24,0.80
2013,09,24,03,25,0.80
2013,09,24,03,26,0.80
2013,09,24,03,27,0.80
2013,09,24,03,28,0.80
2013,09,24,03,29,0.80
2013,09,24,03,30,0.80
2013,09,24,03,34,0.70
2013,09,24,03,35,0.70
2013,09,24,03,36,0.70
2013,09,24,03,37,0.70
2013,09,24,03,38,0.70
2013,09,24,03,39,0.70
2013,09,24,03,40,0.70
2013,09,24,03,41,0.70
2013,09,24,03,42,0.70
2013,09,24,03,43,0.70
2013,09,24,03,44,0.70
2013,09,24,03,45,0.70
2013,09,24,03,49,0.70
2013,09,24,03,50,0.70
2013,09,24,03,51,0.70
2013,09,24,03,52,0.70
2013,09,24,03,53,0.70
2013,09,24,03,54,0.70
2013,09,24,03,55,0.70
2013,09,24,03,56,0.70
2013,09,24,03,57,0.70
2013,09,24,03,58,0.70
2013,09,24,03,59,0.70
2013,09,24,04,00,0.70
2013,09,24,04,04,0.60
2013,09,24,04,05,0.60
2013,09,24,04,06,0.60
2013,09,24,04,07,0.60
2013,09,24,04,08,0.60
2013,09,24,04,09,0.60
2013,09,24,04,10,0.60
2013,09,24,04,11,0.60
2013,09,24,04,12,0.60
2013,09,24,04,13,0.60
2013,09,24,04,14,0.60
2013,09,24,04,15,0.60
2013,09,24,04,19,0.30
2013,09,24,04,20,0.30
2013,09,24,04,21,0.30
2013,09,24,04,22,0.30
2013,09,24,04,23,0.30
2013,09,24,04,24,0.30
2013,09,24,04,25,0.30
2013,09,24,04,26,0.30
2013,09,24,04,27,0.30
2013,09,24,04,28,0.30
2013,09,24,04,29,0.30
2013,09,24,04,30,0.30
2013,09,24,04,34,0.20
2013,09,24,04,35,0.20
2013,09,24,04,36,0.20
2013,09,24,04,37,0.20
2013,09,24,04,38,0.20
2013,09,24,04,39,0.20
2013,09,24,04,40,0.20
2013,09,24,04,41,0.20
2013,09,24,04,42,0.20
2013,09,24,04,43,0.20
2013,09,24,04,44,0.20
2013,09,24,04,45,0.20
2013,09,24,04,49,-0.10
2013,09,24,04,50,-0.10
2013,09,24,04,51,-0.10
2013,09,24,04,52,-0.10
2013,09,24,04,53,-0.10
2013,09,24,04,54,-0.10
2013,09,24,04,55,-0.10
2013,09,24,04,56,-0.10
2013,09,24,04,57,-0.10
2013,09,24,04,58,-0.10
2013,09,24,04,59,-0.10
2013,09,24,05,00,-0.10
2013,09,24,05,04,-0.10
2013,09,24,05,05,-0.10
2013,09,24,05,06,-0.10
2013,09,24,05,07,-0.10
2013,09,24,05,08,-0.10
2013,09,24,05,09,-0.10
2013,09,24,05,10,-0.10
2013,09,24,05,11,-0.10
2013,09,24,05,12,-0.10
2013,09,24,05,13,-0.10
2013,09,24,05,14,-0.10
2013,09,24,05,15,-0.10
2013,09,24,05,19,0.00
2013,09,24,05,20,0.00
2013,09,24,05,21,0.00
2013,09,24,05,22,0.00
2013,09,24,05,23,0.00
2013,09,24,05,24,0.00
2013,09,24,05,25,0.00
2013,09,24,05,26,0.00
2013,09,24,05,27,0.00
2013,09,24,05,28,0.00
2013,09,24,05,29,0.00
2013,09,24,05,30,0.00
2013,09,24,05,34,0.00
2013,09,24,05,35,0.00
2013,09,24,05,36,0.00
2013,09,24,05,37,0.00
2013,09,24,05,38,0.00
2013,09,24,05,39,0.00
2013,09,24,05,40,0.00
2013,09,24,05,41,0.00
2013,09,24,05,42,0.00
2013,09,24,05,43,0.00
2013,09,24,05,44,0.00
2013,09,24,05,45,0.00
2013,09,24,05,49,0.00
2013,09,24,05,50,0.00
2013,09,24,05,51,0.00
2013,09,24,05,52,0.00
2013,09,24,05,53,0.00
2013,09,24,05,54,0.00
2013,09,24,05,55,0.00
2013,09,24,05,56,0.00
2013,09,24,05,57,0.00
2013,09,24,05,58,0.00
2013,09,24,05,59,0.00
2013,09,24,06,00,0.00
2013,09,24,06,04,0.10
2013,09,24,06,05,0.10
2013,09,24,06,06,0.10
2013,09,24,06,07,0.10
2013,09,24,06,08,0.10
2013,09,24,06,09,0.10
2013,09,24,06,10,0.10
2013,09,24,06,11,0.10
2013,09,24,06,12,0.10
2013,09,24,06,13,0.10
2013,09,24,06,14,0.10
2013,09,24,06,15,0.10
2013,09,24,06,19,0.20
2013,09,24,06,20,0.20
2013,09,24,06,21,0.20
2013,09,24,06,22,0.20
2013,09,24,06,23,0.20
2013,09,24,06,24,0.20
2013,09,24,06,25,0.20
2013,09,24,06,26,0.20
2013,09,24,06,27,0.20
2013,09,24,06,28,0.20
2013,09,24,06,29,0.20
2013,09,24,06,30,0.20
2013,09,24,06,34,0.10
2013,09,24,06,35,0.10
2013,09,24,06,36,0.10
2013,09,24,06,37,0.10
2013,09,24,06,38,0.10
2013,09,24,06,39,0.10
2013,09,24,06,40,0.10
2013,09,24,06,41,0.10
2013,09,24,06,42,0.10
2013,09,24,06,43,0.10
2013,09,24,06,44,0.10
2013,09,24,06,45,0.10
2013,09,24,06,49,-0.20
2013,09,24,06,50,-0.20
2013,09,24,06,51,-0.20
2013,09,24,06,52,-0.20
2013,09,24,06,53,-0.20
2013,09,24,06,54,-0.20
2013,09,24,06,55,-0.20
2013,09,24,06,56,-0.20
2013,09,24,06,57,-0.20
2013,09,24,06,58,-0.20
2013,09,24,06,59,-0.20
2013,09,24,07,00,-0.20
2013,09,24,07,04,-0.40
2013,09,24,07,05,-0.40
2013,09,24,07,06,-0.40
2013,09,24,07,07,-0.40
2013,09,24,07,08,-0.40
2013,09,24,07,09,-0.40
2013,09,24,07,10,-0.40
2013,09,24,07,11,-0.40
2013,09,24,07,12,-0.40
2013,09,24,07,13,-0.40
2013,09,24,07,14,-0.40
2013,09,24,07,15,-0.40
2013,09,24,07,19,-0.40
2013,09,24,07,20,-0.40
2013,09,24,07,21,-0.40
2013,09,24,07,22,-0.40
2013,09,24,07,23,-0.40
2013,09,24,07,24,-0.40
2013,09,24,07,25,-0.40
2013,09,24,07,26,-0.40
2013,09,24,07,27,-0.40
2013,09,24,07,28,-0.40
2013,09,24,07,29,-0.40
2013,09,24,07,30,-0.40
2013,09,24,07,34,-0.30
2013,09,24,07,35,-0.30
2013,09,24,07,36,-0.30
2013,09,24,07,37,-0.30
2013,09,24,07,38,-0.30
2013,09,24,07,39,-0.30
2013,09,24,07,40,-0.30
2013,09,24,07,41,-0.30
2013,09,24,07,42,-0.30
2013,09,24,07,43,-0.30
2013,09,24,07,44,-0.30
2013,09,24,07,45,-0.30
2013,09,24,07,49,-0.10
2013,09,24,07,50,-0.10
2013,09,24,07,51,-0.10
2013,09,24,07,52,-0.10
2013,09,24,07,53,-0.10
2013,09,24,07,54,-0.10
2013,09,24,07,55,-0.10
2013,09,24,07,56,-0.10
2013,09,24,07,57,-0.10
2013,09,24,07,58,-0.10
2013,09,24,07,59,-0.10
2013,09,24,08,00,-0.10
2013,09,24,08,04,0.10
2013,09,24,08,05,0.10
2013,09,24,08,06,0.10
2013,09,24,08,07,0.10
2013,09,24,08,08,0.10
2013,09,24,08,09,0.10
2013,09,24,08,10,0.10
2013,09,24,08,11,0.10
2013,09,24,08,12,0.10
2013,09,24,08,13,0.10
2013,09,24,08,14,0.10
2013,09,24,08,15,0.10
2013,09,24,08,19,0.20
2013,09,24,08,20,0.20
2013,09,24,08,21,0.20
2013,09,24,08,22,0.20
2013,09,24,08,23,0.20
2013,09,24,08,24,0.20
2013,09,24,08,25,0.20
2013,09,24,08,26,0.20
2013,09,24,08,27,0.20
2013,09,24,08,28,0.20
2013,09,24,08,29,0.20
2013,09,24,08,30,0.20
2013,09,24,08,34,0.50
2013,09,24,08,35,0.50
2013,09,24,08,36,0.50
2013,09,24,08,37,0.50
2013,09,24,08,38,0.50
2013,09,24,08,39,0.50
2013,09,24,08,40,0.50
2013,09,24,08,41,0.50
2013,09,24,08,42,0.50
2013,09,24,08,43,0.50
2013,09,24,08,44,0.50
2013,09,24,08,45,0.50
2013,09,24,08,49,0.80
2013,09,24,08,50,0.80
2013,09,24,08,51,0.80
2013,09,24,08,52,0.80
2013,09,24,08,53,0.80
2013,09,24,08,54,0.80
2013,09,24,08,55,0.80
2013,09,24,08,56,0.80
2013,09,24,08,57,0.80
2013,09,24,08,58,0.80
2013,09,24,08,59,0.80
2013,09,24,09,00,0.80
2013,09,24,09,04,1.20
2013,09,24,09,05,1.20
2013,09,24,09,06,1.20
2013,09,24,09,07,1.20
2013,09,24,09,08,1.20
2013,09,24,09,09,1.20
2013,09,24,09,10,1.20
2013,09,24,09,11,1.20
2013,09,24,09,12,1.20
2013,09,24,09,13,1.20
2013,09,24,09,14,1.20
2013,09,24,09,15,1.20
2013,09,24,09,19,1.30
2013,09,24,09,20,1.30
2013,09,24,09,21,1.30
2013,09,24,09,22,1.30
2013,09,24,09,23,1.30
2013,09,24,09,24,1.30
2013,09,24,09,25,1.30
2013,09,24,09,26,1.30
2013,09,24,09,27,1.30
2013,09,24,09,28,1.30
2013,09,24,09,29,1.30
2013,09,24,09,30,1.30
2013,09,24,09,34,1.40
2013,09,24,09,35,1.40
2013,09,24,09,36,1.40
2013,09,24,09,37,1.40
2013,09,24,09,38,1.40
2013,09,24,09,39,1.40
2013,09,24,09,40,1.40
2013,09,24,09,41,1.40
2013,09,24,09,42,1.40
2013,09,24,09,43,1.40
2013,09,24,09,44,1.40
2013,09,24,09,45,1.40
2013,09,24,09,49,1.50
2013,09,24,09,50,1.50
2013,09,24,09,51,1.50
2013,09,24,09,52,1.50
2013,09,24,09,53,1.50
2013,09,24,09,54,1.50
2013,09,24,09,55,1.50
2013,09,24,09,56,1.50
2013,09,24,09,57,1.50
2013,09,24,09,58,1.50
2013,09,24,09,59,1.50
2013,09,24,10,00,1.50
2013,09,24,10,04,1.90
2013,09,24,10,05,1.90
2013,09,24,10,06,1.90
2013,09,24,10,07,1.90
2013,09,24,10,08,1.90
2013,09,24,10,09,1.90
2013,09,24,10,10,1.90
2013,09,24,10,11,1.90
2013,09,24,10,12,1.90
2013,09,24,10,13,1.90
2013,09,24,10,14,1.90
2013,09,24,10,15,1.90
2013,09,24,10,19,2.10
2013,09,24,10,20,2.10
2013,09,24,10,21,2.10
2013,09,24,10,22,2.10
2013,09,24,10,23,2.10
2013,09,24,10,24,2.10
2013,09,24,10,25,2.10
2013,09,24,10,26,2.10
2013,09,24,10,27,2.10
2013,09,24,10,28,2.10
2013,09,24,10,29,2.10
2013,09,24,10,30,2.10
2013,09,24,10,34,2.00
2013,09,24,10,35,2.00
2013,09,24,10,36,2.00
2013,09,24,10,37,2.00
2013,09,24,10,38,2.00
2013,09,24,10,39,2.00
2013,09,24,10,40,2.00
2013,09,24,10,41,2.00
2013,09,24,10,42,2.00
2013,09,24,10,43,2.00
2013,09,24,10,44,2.00
2013,09,24,10,45,2.00
2013,09,24,10,49,2.30
2013,09,24,10,50,2.30
2013,09,24,10,51,2.30
2013,09,24,10,52,2.30
2013,09,24,10,53,2.30
2013,09,24,10,54,2.30
2013,09,24,10,55,2.30
2013,09,24,10,56,2.30
2013,09,24,10,57,2.30
2013,09,24,10,58,2.30
2013,09,24,10,59,2.30
2013,09,24,11,00,2.30
2013,09,24,11,04,2.20
2013,09,24,11,05,2.20
2013,09,24,11,06,2.20
2013,09,24,11,07,2.20
2013,09,24,11,08,2.20
2013,09,24,11,09,2.20
2013,09,24,11,10,2.20
2013,09,24,11,11,2.20
2013,09,24,11,12,2.20
2013,09,24,11,13,2.20
2013,09,24,11,14,2.20
2013,09,24,11,15,2.20
2013,09,24,11,19,2.20
2013,09,24,11,20,2.20
2013,09,24,11,21,2.20
2013,09,24,11,22,2.20
2013,09,24,11,23,2.20
2013,09,24,11,24,2.20
2013,09,24,11,25,2.20
2013,09,24,11,26,2.20
2013,09,24,11,27,2.20
2013,09,24,11,28,2.20
2013,09,24,11,29,2.20
2013,09,24,11,30,2.20
2013,09,24,11,34,2.60
2013,09,24,11,35,2.60
2013,09,24,11,36,2.60
2013,09,24,11,37,2.60
2013,09,24,11,38,2.60
2013,09,24,11,39,2.60
2013,09,24,11,40,2.60
2013,09,24,11,41,2.60
2013,09,24,11,42,2.60
2013,09,24,11,43,2.60
2013,09,24,11,44,2.60
2013,09,24,11,45,2.60
2013,09,24,11,49,3.30
2013,09,24,11,50,3.30
2013,09,24,11,51,3.30
2013,09,24,11,52,3.30
2013,09,24,11,53,3.30
2013,09,24,11,54,3.30
2013,09,24,11,55,3.30
2013,09,24,11,56,3.30
2013,09,24,11,57,3.30
2013,09,24,11,58,3.30
2013,09,24,11,59,3.30
2013,09,24,12,00,3.30
2013,09,24,12,04,3.00
2013,09,24,12,05,3.00
2013,09,24,12,06,3.00
2013,09,24,12,07,3.00
2013,09,24,12,08,3.00
2013,09,24,12,09,3.00
2013,09,24,12,10,3.00
2013,09,24,12,11,3.00
2013,09,24,12,12,3.00
2013,09,24,12,13,3.00
2013,09,24,12,14,3.00
2013,09,24,12,15,3.00
2013,09,24,12,19,2.60
2013,09,24,12,20,2.60
2013,09,24,12,21,2.60
2013,09,24,12,22,2.60
2013,09,24,12,23,2.60
2013,09,24,12,24,2.60
2013,09,24,12,25,2.60
2013,09,24,12,26,2.60
2013,09,24,12,27,2.60
2013,09,24,12,28,2.60
2013,09,24,12,29,2.60
2013,09,24,12,30,2.60
2013,09,24,12,34,1.40
2013,09,24,12,35,1.40
2013,09,24,12,36,1.40
2013,09,24,12,37,1.40
2013,09,24,12,38,1.40
2013,09,24,12,39,1.40
2013,09,24,12,40,1.40
2013,09,24,12,41,1.40
2013,09,24,12,42,1.40
2013,09,24,12,43,1.40
2013,09,24,12,44,1.40
2013,09,24,12,45,1.40
2013,09,24,12,49,0.80
2013,09,24,12,50,0.80
2013,09,24,12,51,0.80
2013,09,24,12,52,0.80
2013,09,24,12,53,0.80
2013,09,24,12,54,0.80
2013,09,24,12,55,0.80
2013,09,24,12,56,0.80
2013,09,24,12,57,0.80
2013,09,24,12,58,0.80
2013,09,24,12,59,0.80
2013,09,24,13,00,0.80
2013,09,24,13,04,1.10
2013,09,24,13,05,1.10
2013,09,24,13,06,1.10
2013,09,24,13,07,1.10
2013,09,24,13,08,1.10
2013,09,24,13,09,1.10
2013,09,24,13,10,1.10
2013,09,24,13,11,1.10
2013,09,24,13,12,1.10
2013,09,24,13,13,1.10
2013,09,24,13,14,1.10
2013,09,24,13,15,1.10
2013,09,24,13,19,0.90
2013,09,24,13,20,0.90
2013,09,24,13,21,0.90
2013,09,24,13,22,0.90
2013,09,24,13,23,0.90
2013,09,24,13,24,0.90
2013,09,24,13,25,0.90
2013,09,24,13,26,0.90
2013,09,24,13,27,0.90
2013,09,24,13,28,0.90
2013,09,24,13,29,0.90
2013,09,24,13,30,0.90
2013,09,24,13,34,0.90
2013,09,24,13,35,0.90
2013,09,24,13,36,0.90
2013,09,24,13,37,0.90
2013,09,24,13,38,0.90
2013,09,24,13,39,0.90
2013,09,24,13,40,0.90
2013,09,24,13,41,0.90
2013,09,24,13,42,0.90
2013,09,24,13,43,0.90
2013,09,24,13,44,0.90
2013,09,24,13,45,0.90
2013,09,24,13,49,2.80
2013,09,24,13,50,2.80
2013,09,24,13,51,2.80
2013,09,24,13,52,2.80
2013,09,24,13,53,2.80
2013,09,24,13,54,2.80
2013,09,24,13,55,2.80
2013,09,24,13,56,2.80
2013,09,24,13,57,2.80
2013,09,24,13,58,2.80
2013,09,24,13,59,2.80
2013,09,24,14,00,2.80
2013,09,24,14,04,3.40
2013,09,24,14,05,3.40
2013,09,24,14,06,3.40
2013,09,24,14,07,3.40
2013,09,24,14,08,3.40
2013,09,24,14,09,3.40
2013,09,24,14,10,3.40
2013,09,24,14,11,3.40
2013,09,24,14,12,3.40
2013,09,24,14,13,3.40
2013,09,24,14,14,3.40
2013,09,24,14,15,3.40
2013,09,24,14,19,2.00
2013,09,24,14,20,2.00
2013,09,24,14,21,2.00
2013,09,24,14,22,2.00
2013,09,24,14,23,2.00
2013,09,24,14,24,2.00
2013,09,24,14,25,2.00
2013,09,24,14,26,2.00
2013,09,24,14,27,2.00
2013,09,24,14,28,2.00
2013,09,24,14,29,2.00
2013,09,24,14,30,2.00
2013,09,24,14,34,1.30
2013,09,24,14,35,1.30
2013,09,24,14,36,1.30
2013,09,24,14,37,1.30
2013,09,24,14,38,1.30
2013,09,24,14,39,1.30
2013,09,24,14,40,1.30
2013,09,24,14,41,1.30
2013,09,24,14,42,1.30
2013,09,24,14,43,1.30
2013,09,24,14,44,1.30
2013,09,24,14,45,1.30
2013,09,24,14,49,0.80
2013,09,24,14,50,0.80
2013,09,24,14,51,0.80
2013,09,24,14,52,0.80
2013,09,24,14,53,0.80
2013,09,24,14,54,0.80
2013,09,24,14,55,0.80
2013,09,24,14,56,0.80
2013,09,24,14,57,0.80
2013,09,24,14,58,0.80
2013,09,24,14,59,0.80
2013,09,24,15,00,0.80
2013,09,24,15,04,0.10
2013,09,24,15,05,0.10
2013,09,24,15,06,0.10
2013,09,24,15,07,0.10
2013,09,24,15,08,0.10
2013,09,24,15,09,0.10
2013,09,24,15,10,0.10
2013,09,24,15,11,0.10
2013,09,24,15,12,0.10
2013,09,24,15,13,0.10
2013,09,24,15,14,0.10
2013,09,24,15,15,0.10
2013,09,24,15,19,0.00
2013,09,24,15,20,0.00
2013,09,24,15,21,0.00
2013,09,24,15,22,0.00
2013,09,24,15,23,0.00
2013,09,24,15,24,0.00
2013,09,24,15,25,0.00
2013,09,24,15,26,0.00
2013,09,24,15,27,0.00
2013,09,24,15,28,0.00
2013,09,24,15,29,0.00
2013,09,24,15,30,0.00
2013,09,24,15,34,-0.10
2013,09,24,15,35,-0.10
2013,09,24,15,36,-0.10
2013,09,24,15,37,-0.10
2013,09,24,15,38,-0.10
2013,09,24,15,39,-0.10
2013,09,24,15,40,-0.10
2013,09,24,15,41,-0.10
2013,09,24,15,42,-0.10
2013,09,24,15,43,-0.10
2013,09,24,15,44,-0.10
2013,09,24,15,45,-0.10
2013,09,24,15,49,0.20
2013,09,24,15,50,0.20
2013,09,24,15,51,0.20
2013,09,24,15,52,0.20
2013,09,24,15,53,0.20
2013,09,24,15,54,0.20
2013,09,24,15,55,0.20
2013,09,24,15,56,0.20
2013,09,24,15,57,0.20
2013,09,24,15,58,0.20
2013,09,24,15,59,0.20
2013,09,24,16,00,0.20
2013,09,24,16,04,0.30
2013,09,24,16,05,0.30
2013,09,24,16,06,0.30
2013,09,24,16,07,0.30
2013,09,24,16,08,0.30
2013,09,24,16,09,0.30
2013,09,24,16,10,0.30
2013,09,24,16,11,0.30
2013,09,24,16,12,0.30
2013,09,24,16,13,0.30
2013,09,24,16,14,0.30
2013,09,24,16,15,0.30
2013,09,24,16,19,0.20
2013,09,24,16,20,0.20
2013,09,24,16,21,0.20
2013,09,24,16,22,0.20
2013,09,24,16,23,0.20
2013,09,24,16,24,0.20
2013,09,24,16,25,0.20
2013,09,24,16,26,0.20
2013,09,24,16,27,0.20
2013,09,24,16,28,0.20
2013,09,24,16,29,0.20
2013,09,24,16,30,0.20
2013,09,24,16,34,0.00
2013,09,24,16,35,0.00
2013,09,24,16,36,0.00
2013,09,24,16,37,0.00
2013,09,24,16,38,0.00
2013,09,24,16,39,0.00
2013,09,24,16,40,0.00
2013,09,24,16,41,0.00
2013,09,24,16,42,0.00
2013,09,24,16,43,0.00
2013,09,24,16,44,0.00
2013,09,24,16,45,0.00
2013,09,24,16,49,-0.20
2013,09,24,16,50,-0.20
2013,09,24,16,51,-0.20
2013,09,24,16,52,-0.20
2013,09,24,16,53,-0.20
2013,09,24,16,54,-0.20
2013,09,24,16,55,-0.20
2013,09,24,16,56,-0.20
2013,09,24,16,57,-0.20
2013,09,24,16,58,-0.20
2013,09,24,16,59,-0.20
2013,09,24,17,00,-0.20
2013,09,24,17,04,0.00
2013,09,24,17,05,0.00
2013,09,24,17,06,0.00
2013,09,24,17,07,0.00
2013,09,24,17,08,0.00
2013,09,24,17,09,0.00
2013,09,24,17,10,0.00
2013,09,24,17,11,0.00
2013,09,24,17,12,0.00
2013,09,24,17,13,0.00
2013,09,24,17,14,0.00
2013,09,24,17,15,0.00
2013,09,24,17,19,-0.10
2013,09,24,17,20,-0.10
2013,09,24,17,21,-0.10
2013,09,24,17,22,-0.10
2013,09,24,17,23,-0.10
2013,09,24,17,24,-0.10
2013,09,24,17,25,-0.10
2013,09,24,17,26,-0.10
2013,09,24,17,27,-0.10
2013,09,24,17,28,-0.10
2013,09,24,17,29,-0.10
2013,09,24,17,30,-0.10
2013,09,24,17,34,0.00
2013,09,24,17,35,0.00
2013,09,24,17,36,0.00
2013,09,24,17,37,0.00
2013,09,24,17,38,0.00
2013,09,24,17,39,0.00
2013,09,24,17,40,0.00
2013,09,24,17,41,0.00
2013,09,24,17,42,0.00
2013,09,24,17,43,0.00
2013,09,24,17,44,0.00
2013,09,24,17,45,0.00
2013,09,24,17,49,0.00
2013,09,24,17,50,0.00
2013,09,24,17,51,0.00
2013,09,24,17,52,0.00
2013,09,24,17,53,0.00
2013,09,24,17,54,0.00
2013,09,24,17,55,0.00
2013,09,24,17,56,0.00
2013,09,24,17,57,0.00
2013,09,24,17,58,0.00
2013,09,24,17,59,0.00
2013,09,24,18,00,0.00
2013,09,24,18,04,-0.10
2013,09,24,18,05,-0.10
2013,09,24,18,06,-0.10
2013,09,24,18,07,-0.10
2013,09,24,18,08,-0.10
2013,09,24,18,09,-0.10
2013,09,24,18,10,-0.10
2013,09,24,18,11,-0.10
2013,09,24,18,12,-0.10
2013,09,24,18,13,-0.10
2013,09,24,18,14,-0.10
2013,09,24,18,15,-0.10
2013,09,24,18,19,0.00
2013,09,24,18,20,0.00
2013,09,24,18,21,0.00
2013,09,24,18,22,0.00
2013,09,24,18,23,0.00
2013,09,24,18,24,0.00
2013,09,24,18,25,0.00
2013,09,24,18,26,0.00
2013,09,24,18,27,0.00
2013,09,24,18,28,0.00
2013,09,24,18,29,0.00
2013,09,24,18,30,0.00
2013,09,24,18,34,0.00
2013,09,24,18,35,0.00
2013,09,24,18,36,0.00
2013,09,24,18,37,0.00
2013,09,24,18,38,0.00
2013,09,24,18,39,0.00
2013,09,24,18,40,0.00
2013,09,24,18,41,0.00
2013,09,24,18,42,0.00
2013,09,24,18,43,0.00
2013,09,24,18,44,0.00
2013,09,24,18,45,0.00
2013,09,24,18,49,-0.10
2013,09,24,18,50,-0.10
2013,09,24,18,51,-0.10
2013,09,24,18,52,-0.10
2013,09,24,18,53,-0.10
2013,09,24,18,54,-0.10
2013,09,24,18,55,-0.10
2013,09,24,18,56,-0.10
2013,09,24,18,57,-0.10
2013,09,24,18,58,-0.10
2013,09,24,18,59,-0.10
2013,09,24,19,00,-0.10
2013,09,24,19,04,-0.10
2013,09,24,19,05,-0.10
2013,09,24,19,06,-0.10
2013,09,24,19,07,-0.10
2013,09,24,19,08,-0.10
2013,09,24,19,09,-0.10
2013,09,24,19,10,-0.10
2013,09,24,19,11,-0.10
2013,09,24,19,12,-0.10
2013,09,24,19,13,-0.10
2013,09,24,19,14,-0.10
2013,09,24,19,15,-0.10
2013,09,24,19,19,-0.20
2013,09,24,19,20,-0.20
2013,09,24,19,21,-0.20
2013,09,24,19,22,-0.20
2013,09,24,19,23,-0.20
2013,09,24,19,24,-0.20
2013,09,24,19,25,-0.20
2013,09,24,19,26,-0.20
2013,09,24,19,27,-0.20
2013,09,24,19,28,-0.20
2013,09,24,19,29,-0.20
2013,09,24,19,30,-0.20
2013,09,24,19,34,-0.20
2013,09,24,19,35,-0.20
2013,09,24,19,36,-0.20
2013,09,24,19,37,-0.20
2013,09,24,19,38,-0.20
2013,09,24,19,39,-0.20
2013,09,24,19,40,-0.20
2013,09,24,19,41,-0.20
2013,09,24,19,42,-0.20
2013,09,24,19,43,-0.20
2013,09,24,19,44,-0.20
2013,09,24,19,45,-0.20
2013,09,24,19,49,-0.30
2013,09,24,19,50,-0.30
2013,09,24,19,51,-0.30
2013,09,24,19,52,-0.30
2013,09,24,19,53,-0.30
2013,09,24,19,54,-0.30
2013,09,24,19,55,-0.30
2013,09,24,19,56,-0.30
2013,09,24,19,57,-0.30
2013,09,24,19,58,-0.30
2013,09,24,19,59,-0.30
2013,09,24,20,00,-0.30
2013,09,24,20,04,-0.40
2013,09,24,20,05,-0.40
2013,09,24,20,06,-0.40
2013,09,24,20,07,-0.40
2013,09,24,20,08,-0.40
2013,09,24,20,09,-0.40
2013,09,24,20,10,-0.40
2013,09,24,20,11,-0.40
2013,09,24,20,12,-0.40
2013,09,24,20,13,-0.40
2013,09,24,20,14,-0.40
2013,09,24,20,15,-0.40
2013,09,24,20,19,-0.40
2013,09,24,20,20,-0.40
2013,09,24,20,21,-0.40
2013,09,24,20,22,-0.40
2013,09,24,20,23,-0.40
2013,09,24,20,24,-0.40
2013,09,24,20,25,-0.40
2013,09,24,20,26,-0.40
2013,09,24,20,27,-0.40
2013,09,24,20,28,-0.40
2013,09,24,20,29,-0.40
2013,09,24,20,30,-0.40
2013,09,24,20,34,-0.40
2013,09,24,20,35,-0.40
2013,09,24,20,36,-0.40
2013,09,24,20,37,-0.40
2013,09,24,20,38,-0.40
2013,09,24,20,39,-0.40
2013,09,24,20,40,-0.40
2013,09,24,20,41,-0.40
2013,09,24,20,42,-0.40
2013,09,24,20,43,-0.40
2013,09,24,20,44,-0.40
2013,09,24,20,45,-0.40
2013,09,24,20,49,-0.50
2013,09,24,20,50,-0.50
2013,09,24,20,51,-0.50
2013,09,24,20,52,-0.50
2013,09,24,20,53,-0.50
2013,09,24,20,54,-0.50
2013,09,24,20,55,-0.50
2013,09,24,20,56,-0.50
2013,09,24,20,57,-0.50
2013,09,24,20,58,-0.50
2013,09,24,20,59,-0.50
2013,09,24,21,00,-0.50
2013,09,24,21,04,-0.40
2013,09,24,21,05,-0.40
2013,09,24,21,06,-0.40
2013,09,24,21,07,-0.40
2013,09,24,21,08,-0.40
2013,09,24,21,09,-0.40
2013,09,24,21,10,-0.40
2013,09,24,21,11,-0.40
2013,09,24,21,12,-0.40
2013,09,24,21,13,-0.40
2013,09,24,21,14,-0.40
2013,09,24,21,15,-0.40
2013,09,24,21,19,-0.40
2013,09,24,21,20,-0.40
2013,09,24,21,21,-0.40
2013,09,24,21,22,-0.40
2013,09,24,21,23,-0.40
2013,09,24,21,24,-0.40
2013,09,24,21,25,-0.40
2013,09,24,21,26,-0.40
2013,09,24,21,27,-0.40
2013,09,24,21,28,-0.40
2013,09,24,21,29,-0.40
2013,09,24,21,30,-0.40
2013,09,24,21,34,-0.30
2013,09,24,21,35,-0.30
2013,09,24,21,36,-0.30
2013,09,24,21,37,-0.30
2013,09,24,21,38,-0.30
2013,09,24,21,39,-0.30
2013,09,24,21,40,-0.30
2013,09,24,21,41,-0.30
2013,09,24,21,42,-0.30
2013,09,24,21,43,-0.30
2013,09,24,21,44,-0.30
2013,09,24,21,45,-0.30
2013,09,24,21,49,-0.20
2013,09,24,21,50,-0.20
2013,09,24,21,51,-0.20
2013,09,24,21,52,-0.20
2013,09,24,21,53,-0.20
2013,09,24,21,54,-0.20
2013,09,24,21,55,-0.20
2013,09,24,21,56,-0.20
2013,09,24,21,57,-0.20
2013,09,24,21,58,-0.20
2013,09,24,21,59,-0.20
2013,09,24,22,00,-0.20
2013,09,24,22,04,-0.10
2013,09,24,22,05,-0.10
2013,09,24,22,06,-0.10
2013,09,24,22,07,-0.10
2013,09,24,22,08,-0.10
2013,09,24,22,09,-0.10
2013,09,24,22,10,-0.10
2013,09,24,22,11,-0.10
2013,09,24,22,12,-0.10
2013,09,24,22,13,-0.10
2013,09,24,22,14,-0.10
2013,09,24,22,15,-0.10
2013,09,24,22,19,-0.10
2013,09,24,22,20,-0.10
2013,09,24,22,21,-0.10
2013,09,24,22,22,-0.10